Location: ?????????
(54.7630°N, 39.4991°E)
Time: 11:55:33
(UTC+00:00)

NOSS 3-1 (C) - Pass Details

Date: 14 April 2026
Orbit: 618 x 1583 km, 63.4° (Epoch: 10 January)

Event Time Altitude Azimuth Distance (km) Brightness Sun altitude
Rises 20:01:42 0° 310° (NW) 3,633 7.5 -23.4°
Reaches altitude 10° 20:04:03 10° 308° (NW) 2,809 6.7 -23.5°
Maximum altitude 20:10:43 64° 229° (SW) 1,321 4.0 -23.9°
Enters shadow 20:13:20 43° 168° (SSE) 1,715 4.2 -24.0°
